Skip Page Navigation
NASA JPL Caltech
NASA Logo - Jet Propulsion Laboratory + View the NASA Portal
+ Center for Near-Earth Object Studies
JPL Home Earth Solar System Stars & Galaxies Technology
JPL Solar System Dynamics
BODIES ORBITS EPHEMERIDES TOOLS PHYSICAL DATA DISCOVERY FAQ SITE MAP
JPL Small-Body Database Browser
Search: [ help ]  
226910 (2004 TF196)
Classification: Main-belt Asteroid          SPK-ID: 2226910
Ephemeris | Orbit Diagram | Orbital Elements | Mission Design | Physical Parameters | Discovery Circumstances ]

[ show orbit diagram ]
Orbital Elements at Epoch 2459396.5 (2021-Jul-01.0) TDB
Reference: JPL 15 (heliocentric ecliptic J2000)
 Element Value Uncertainty (1-sigma)   Units 
e .121236186110971 6.3052e-08  
a 2.763114542585701 2.2056e-08 au
q 2.42812507365485 1.7879e-07 au
i 3.416784119746859 6.781e-06 deg
node 229.6642598407628 0.0001022 deg
peri 127.4692250170547 0.00010552 deg
M 254.0369443084481 2.8155e-05 deg
tp 2459890.297324730073
(2022-Nov-06.79732473)
0.00013407 TDB
period 1677.632225143534
4.59
2.0087e-05
5.5e-08
d
yr
n .2145881526382813 2.5694e-09 deg/d
Q 3.098104011516551 2.473e-08 au
  Orbit Determination Parameters
   # obs. used (total)      205  
   data-arc span      9342 days (25.58 yr)  
   first obs. used      1995-11-14  
   last obs. used      2021-06-12  
   planetary ephem.      DE441  
   SB-pert. ephem.      SB441-N16  
   condition code      0  
   norm. resid. RMS      .596  
   source      ORB  
   producer      Otto Matic  
   solution date      2021-Jul-09 03:49:21  

Additional Information
 Earth MOID = 1.42516 au 
 Jupiter MOID = 2.35534 au 
 T_jup = 3.327 
[ hide covariance matrix ]
Orbital Elements at Epoch 2457479.5 (2016-Apr-01.0) TDB
Reference: JPL 15 (heliocentric ecliptic J2000)
 Element Value Uncertainty (1-sigma)   Units 
e .1194734165660281 6.2916e-08  
q 2.435439524184174 1.7797e-07 au
tp 2458211.623736314342
(2018-Apr-03.12373631)
0.00012739 TDB
node 229.6990517564678 0.00010229 deg
peri 127.2520379060639 0.00010571 deg
i 3.413376176228942 6.7768e-06 deg
  Orbit Determination Parameters
   # obs. used (total)      205  
   data-arc span      9342 days (25.58 yr)  
   first obs. used      1995-11-14  
   last obs. used      2021-06-12  
   planetary ephem.      DE441  
   SB-pert. ephem.      SB441-N16  
   condition code      0  
   norm. resid. RMS      .596  
   source      ORB  
   producer      Otto Matic  
   solution date      2021-Jul-09 03:49:21  

Additional Information
 Jupiter MOID = 2.35534 au 
 T_jup = 3.327 
Orbit Covariance (6×6)
  e q tp node peri i
e 3.958482055854385E-15 -1.113272728664535E-14 8.896450691613956E-13 -2.088337092300373E-14 1.467545681770064E-13 -1.112500455848164E-15
q -1.113272728664535E-14 3.167435824619899E-14 -1.559970672227561E-12 5.802064201835636E-14 -2.53737371750561E-13 3.355203798922572E-15
tp 8.896450691613956E-13 -1.559970672227561E-12 1.622942391149801E-8 2.569751077576108E-12 3.42956161833647E-9 -4.96062752030946E-12
node -2.088337092300373E-14 5.802064201835636E-14 2.569751077576108E-12 1.046396047503566E-8 -1.044335767490304E-8 -1.087554385784507E-10
peri 1.467545681770064E-13 -2.53737371750561E-13 3.42956161833647E-9 -1.044335767490304E-8 1.117550804375949E-8 1.075640282200738E-10
i -1.112500455848164E-15 3.355203798922572E-15 -4.96062752030946E-12 -1.087554385784507E-10 1.075640282200738E-10 4.592537366345714E-11

Ephemeris | Orbit Diagram | Orbital Elements | Mission Design | Physical Parameters | Discovery Circumstances ]

Physical Parameter Table
Parameter Symbol Value Units Sigma Reference Notes
absolute magnitude H 16.60   n/a E2021B55  

226910 (2004 TF196)          Discovered 2004-Oct-07 by Spacewatch at Kitt Peak
Reference: 20091202/Numbers.arcLast Updated: 2009-12-04

Alternate Designations
 2004 TF196 = 1995 VA9 
Ephemeris | Orbit Diagram | Orbital Elements | Mission Design | Physical Parameters | Discovery Circumstances ]
ABOUT SSD CREDITS/AWARDS PRIVACY/COPYRIGHT GLOSSARY LINKS
FirstGov 2021-Jul-28 05:51 UT
(server date/time)  
NASA Home Page
Site Manager:   Ryan S. Park
Webmaster  Alan B. Chamberlin